Showing default

HULIANWANG DIGUI-186, 100211

Orbit data source: Space-Track

HULIANWANG DIGUI-186, 100211 is a payload satellite owned by Zhongguo Xingwang (CN) in LEO that was launched on Tue, 04 Aug 2026 UTC launched from the Wenchang Satellite Launch Center (WSC). Payload-class satellites include a variety of spacecraft equipped with specific instruments for various scientific and technological missions. These include communications satellites like Starlink; space stations such as the ISS; scientific satellites like the Hubble; Earth observation satellites from companies like Planet Labs, Umbra, and HawkEye 360; GPS; miniature CubeSats for education and research; and military/defense satellites.

Loading next visibility...
Identifier
100211, 2026-176J
Orbit
LEO
Country
Flag of CNCN / PRC
Related business
Manufacturer
CAST?
Mission
Operational spacecraft
Bus & Motor
XINGWANG C, Unknown motor
Mass
~700 kg wet, ~700 kg dry
Launch date (UTC)
2026-08-04 (2 months ago)
Launch vehicle
Unknown
Launch site
Wenchang Satellite Launch Center (WSC)
Object type
Payload
Rocket body
Debris
Shape & HBR
BOX + 2 PAN, 14.5 m
Radar Cross Section
Large (>1 m²)

Expand to show TLE details & history
Last TLE update: 12 hours ago

TLE from 12 hours ago
0 HULIANWANG DIGUI-186
1 A0211U 26176J   26263.57783857 -.00000093  00000-0  66024-4 0  9990
2 A0211  49.9942 223.4084 0000278  27.4988 332.5899 13.29328198  6316
Epoch: 2026-09-20T13:52Z
TLE epoch observation values (Epoch: 2026-09-20T13:52:05.252Z)
Latitude
0.00001°
Longitude
15.91651°
Altitude
1,149.618 km
Speed
7.279 km/s
True Right ascension
14h 53m 38s
True Declination
0° 00' 00"
Sunlit
Object was in daylight at epoch
Visualization orbit readout
Latitude
Unknown
Longitude
Unknown
Altitude
Unknown
Speed
Unknown
Apparent Right ascension
Unknown
Apparent Declination
Unknown
Sunlit
N/A
Visualization observer readout
Local Sidereal Time
19:10:43
Azimuth
Unknown
Elevation
Unknown
Doppler factor
Unknown
Orbital elements
Apogee altitude
1,150.214 km
Perigee altitude
1,149.795 km
Semi-major axis
7,528.142 km
Eccentricity
0.00003
Inclination
49.9942°
RAAN
223.4084°
Arg. of periapsis
27.4988°
True anomaly
332.58843°
Mean anomaly
332.5899°
Eccentric anomaly
332.58917°
Mean motion
3.32286 °/min
Orbital period
108.34 mins
BSTAR
0.000066024
Loading maneuver chart data...
Computing Atmospheric mass density...
Loading historical data...
Loading historical data...
Loading historical data...
Loading historical data...
Loading historical data...
Loading historical data...
Loading historical data...

Documentation

Showing up to 5 results
|